EW0013 Weather Reports


Display with metric or nautical units.
time (UTC)temp
F
wind
direction
speed
MPH
gust
MPH
rain 1hr
in
rain 24hr
in
rain mn
in
humidity
%
barometer
mb
20210926004531 79 95 0.0 0.0 0.00 0.00 0.00 26 1014.6
20210926004022 80 95 0.0 0.0 0.00 0.00 0.00 25 1014.5
20210926003530 80 95 0.0 0.0 0.00 0.00 0.00 24 1014.5
20210926003021 81 95 0.0 0.0 0.00 0.00 0.00 23 1014.6
20210926002525 81 95 0.0 0.0 0.00 0.00 0.00 22 1014.5
20210926002031 82 95 0.0 0.0 0.00 0.00 0.00 23 1014.5
20210926001515 82 95 0.0 0.0 0.00 0.00 0.00 21 1014.5
20210926001027 82 95 0.0 0.0 0.00 0.00 0.00 20 1014.5
20210926000522 82 95 0.0 0.0 0.00 0.00 0.00 20 1014.5
20210926000033 83 95 0.0 0.0 0.00 0.00 0.00 21 1014.5
20210925235520 83 95 0.0 0.0 0.00 0.00 0.00 20 1014.4
20210925235019 83 95 0.0 0.0 0.00 0.00 0.00 20 1014.4
20210925234533 83 95 0.0 1.0 0.00 0.00 0.00 18 1014.4
20210925234046 83 95 0.0 3.0 0.00 0.00 0.00 19 1014.4
20210925233534 83 95 0.0 3.0 0.00 0.00 0.00 18 1014.4
20210925233023 83 98 0.0 3.0 0.00 0.00 0.00 16 1014.4
20210925232520 84 103 0.0 3.0 0.00 0.00 0.00 17 1014.4
20210925232027 84 103 1.0 3.0 0.00 0.00 0.00 17 1014.3
20210925231519 84 99 0.0 1.0 0.00 0.00 0.00 18 1014.4
20210925231034 84 99 0.0 2.0 0.00 0.00 0.00 18 1014.4
20210925230533 84 99 0.0 2.0 0.00 0.00 0.00 16 1014.4
20210925230028 84 90 0.0 5.0 0.00 0.00 0.00 17 1014.3
20210925225538 84 89 1.0 7.0 0.00 0.00 0.00 17 1014.3
20210925225046 84 95 3.0 7.0 0.00 0.00 0.00 16 1014.5
20210925224535 84 87 0.0 6.0 0.00 0.00 0.00 16 1014.5
20210925224026 84 103 1.0 6.0 0.00 0.00 0.00 16 1014.5
20210925223517 84 115 0.0 4.0 0.00 0.00 0.00 17 1014.5
20210925223028 84 144 1.0 4.0 0.00 0.00 0.00 17 1014.6
20210925222535 84 80 0.0 6.0 0.00 0.00 0.00 17 1014.7
20210925222024 84 93 2.0 6.0 0.00 0.00 0.00 16 1014.7
20210925221520 84 118 0.0 3.0 0.00 0.00 0.00 17 1014.7
20210925221018 84 108 0.0 2.0 0.00 0.00 0.00 16 1014.8
20210925220529 84 109 0.0 2.0 0.00 0.00 0.00 17 1014.9
20210925220029 84 109 0.0 2.0 0.00 0.00 0.00 18 1014.9
20210925215537 84 120 1.0 3.0 0.00 0.00 0.00 17 1014.9
20210925215038 84 85 1.0 3.0 0.00 0.00 0.00 17 1015.1
20210925214530 84 100 1.0 3.0 0.00 0.00 0.00 17 1015.1
20210925214023 84 128 1.0 2.0 0.00 0.00 0.00 18 1015.1
20210925213533 84 94 0.0 3.0 0.00 0.00 0.00 19 1015.2
20210925213023 84 94 0.0 3.0 0.00 0.00 0.00 17 1015.3
20210925212530 84 123 0.0 5.0 0.00 0.00 0.00 18 1015.4
20210925212016 84 119 2.0 5.0 0.00 0.00 0.00 17 1015.5
20210925211524 84 90 2.0 6.0 0.00 0.00 0.00 16 1015.6
20210925211019 84 119 1.0 6.0 0.00 0.00 0.00 17 1015.7
20210925210532 84 74 3.0 5.0 0.00 0.00 0.00 18 1015.7
20210925210027 84 126 1.0 3.0 0.00 0.00 0.00 18 1015.9
20210925205530 84 91 1.0 7.0 0.00 0.00 0.00 17 1015.9
20210925205021 84 103 3.0 7.0 0.00 0.00 0.00 17 1016.0
20210925204521 84 100 2.0 5.0 0.00 0.00 0.00 16 1016.1
20210925204034 84 102 1.0 3.0 0.00 0.00 0.00 17 1016.1
20210925203520 84 96 0.0 5.0 0.00 0.00 0.00 18 1016.3
20210925203019 84 86 1.0 8.0 0.00 0.00 0.00 18 1016.4
20210925202529 84 82 3.0 8.0 0.00 0.00 0.00 17 1016.5
20210925202037 84 114 0.0 6.0 0.00 0.00 0.00 18 1016.6
20210925201540 84 98 2.0 6.0 0.00 0.00 0.00 17 1016.7
20210925201023 84 76 2.0 5.0 0.00 0.00 0.00 18 1016.8
20210925200516 84 99 2.0 5.0 0.00 0.00 0.00 16 1016.8
20210925200035 84 174 1.0 4.0 0.00 0.00 0.00 18 1017.0
20210925195525 84 111 0.0 6.0 0.00 0.00 0.00 18 1017.1
20210925195017 84 150 1.0 6.0 0.00 0.00 0.00 17 1017.3
20210925194525 85 142 1.0 4.0 0.00 0.00 0.00 16 1017.5
20210925194020 85 90 2.0 5.0 0.00 0.00 0.00 16 1017.6
20210925193529 84 98 0.0 5.0 0.00 0.00 0.00 18 1017.7
20210925193034 84 131 1.0 3.0 0.00 0.00 0.00 18 1017.9
20210925192520 84 115 1.0 5.0 0.00 0.00 0.00 19 1018.0
20210925192016 84 86 1.0 5.0 0.00 0.00 0.00 19 1018.1
20210925191540 83 94 0.0 7.0 0.00 0.00 0.00 18 1018.2
20210925191024 83 82 2.0 7.0 0.00 0.00 0.00 19 1018.3
20210925190548 83 87 1.0 6.0 0.00 0.00 0.00 18 1018.3
20210925190031 83 86 1.0 7.0 0.00 0.00 0.00 19 1018.4
20210925185549 83 78 3.0 5.0 0.00 0.00 0.00 17 1018.5
20210925185020 82 93 2.0 6.0 0.00 0.00 0.00 18 1018.6
20210925184528 82 100 1.0 6.0 0.00 0.00 0.00 19 1018.8
20210925184024 82 82 2.0 6.0 0.00 0.00 0.00 18 1018.8
20210925183528 82 92 2.0 6.0 0.00 0.00 0.00 19 1018.9
20210925183020 82 82 2.0 7.0 0.00 0.00 0.00 20 1019.0
20210925182539 82 96 2.0 7.0 0.00 0.00 0.00 19 1019.1
20210925182037 82 86 2.0 7.0 0.00 0.00 0.00 21 1019.2
20210925181531 82 127 1.0 5.0 0.00 0.00 0.00 22 1019.3
20210925181016 82 97 1.0 5.0 0.00 0.00 0.00 24 1019.4
20210925180527 82 98 2.0 5.0 0.00 0.00 0.00 22 1019.5
20210925180031 82 105 0.0 2.0 0.00 0.00 0.00 23 1019.5
20210925175517 81 109 0.0 2.0 0.00 0.00 0.00 27 1019.6
20210925175040 81 114 0.0 3.0 0.00 0.00 0.00 29 1019.6
20210925174529 81 115 1.0 3.0 0.00 0.00 0.00 27 1019.8
20210925174039 80 89 0.0 0.0 0.00 0.00 0.00 29 1019.9
20210925173542 80 89 0.0 0.0 0.00 0.00 0.00 30 1019.9
20210925173025 79 89 0.0 0.0 0.00 0.00 0.00 29 1020.1
20210925172528 78 89 0.0 0.0 0.00 0.00 0.00 29 1020.2
20210925172031 78 89 0.0 0.0 0.00 0.00 0.00 33 1020.2
20210925171536 77 89 0.0 2.0 0.00 0.00 0.00 31 1020.3
20210925171021 77 89 0.0 2.0 0.00 0.00 0.00 35 1020.3
20210925170526 76 89 0.0 2.0 0.00 0.00 0.00 35 1020.3
20210925170024 76 89 0.0 2.0 0.00 0.00 0.00 35 1020.4
20210925165530 75 88 0.0 0.0 0.00 0.00 0.00 37 1020.5
20210925165024 74 88 0.0 0.0 0.00 0.00 0.00 37 1020.5
20210925164534 73 88 0.0 0.0 0.00 0.00 0.00 38 1020.6
20210925164020 73 88 0.0 2.0 0.00 0.00 0.00 39 1020.7
20210925163527 72 88 0.0 2.0 0.00 0.00 0.00 40 1020.7
20210925163022 72 89 0.0 2.0 0.00 0.00 0.00 40 1020.7
20210925162535 71 89 0.0 2.0 0.00 0.00 0.00 42 1020.7
20210925162030 70 93 0.0 2.0 0.00 0.00 0.00 45 1020.8
20210925161526 69 93 0.0 2.0 0.00 0.00 0.00 44 1020.8
20210925161047 68 93 0.0 2.0 0.00 0.00 0.00 47 1020.8
20210925160531 67 93 1.0 2.0 0.00 0.00 0.00 45 1020.8
20210925160024 66 88 0.0 2.0 0.00 0.00 0.00 49 1020.8
20210925155531 66 88 0.0 1.0 0.00 0.00 0.00 50 1020.8
20210925155027 65 97 0.0 1.0 0.00 0.00 0.00 49 1020.8
20210925154513 64 97 0.0 0.0 0.00 0.00 0.00 51 1020.9
20210925154023 62 97 0.0 1.0 0.00 0.00 0.00 55 1021.0
20210925153533 61 97 0.0 1.0 0.00 0.00 0.00 57 1021.0
20210925153026 60 97 0.0 3.0 0.00 0.00 0.00 58 1021.0
20210925152519 59 104 0.0 3.0 0.00 0.00 0.00 59 1021.2
20210925152038 58 105 0.0 2.0 0.00 0.00 0.00 60 1021.2
20210925151517 57 121 0.0 0.0 0.00 0.00 0.00 61 1021.1
20210925151026 56 121 0.0 0.0 0.00 0.00 0.00 62 1021.2
20210925150524 56 121 0.0 0.0 0.00 0.00 0.00 64 1021.2
20210925150039 55 121 0.0 0.0 0.00 0.00 0.00 66 1021.3
20210925145534 53 121 0.0 1.0 0.00 0.00 0.00 69 1021.3
20210925145047 52 121 0.0 1.0 0.00 0.00 0.00 73 1021.3
20210925144527 51 121 0.0 2.0 0.00 0.00 0.00 76 1021.4
20210925144024 49 121 0.0 2.0 0.00 0.00 0.00 82 1021.4
20210925143516 48 121 0.0 0.0 0.00 0.00 0.00 84 1021.4
20210925143020 47 121 0.0 0.0 0.00 0.00 0.00 86 1021.3
20210925142538 46 121 0.0 0.0 0.00 0.00 0.00 86 1021.3
20210925142042 45 121 0.0 0.0 0.00 0.00 0.00 86 1021.3
20210925141520 45 121 0.0 0.0 0.00 0.00 0.00 86 1021.3
20210925141015 44 121 0.0 0.0 0.00 0.00 0.00 86 1021.4
20210925140531 43 121 0.0 0.0 0.00 0.00 0.00 86 1021.4
20210925140029 43 121 0.0 0.0 0.00 0.00 0.00 85 1021.4
20210925135532 42 121 0.0 0.0 0.00 0.00 0.00 85 1021.5
20210925135017 42 121 0.0 0.0 0.00 0.00 0.00 85 1021.5
20210925134526 42 121 0.0 0.0 0.00 0.00 0.00 84 1021.4
20210925134032 42 121 0.0 0.0 0.00 0.00 0.00 83 1021.4
20210925133525 42 121 0.0 0.0 0.00 0.00 0.00 83 1021.3
20210925133031 42 121 0.0 0.0 0.00 0.00 0.00 83 1021.4
20210925132535 42 121 0.0 0.0 0.00 0.00 0.00 82 1021.4
20210925132026 42 121 0.0 0.0 0.00 0.00 0.00 82 1021.3
20210925131535 42 121 0.0 0.0 0.00 0.00 0.00 82 1021.3
20210925131024 42 121 0.0 0.0 0.00 0.00 0.00 82 1021.4
20210925130520 42 121 0.0 0.0 0.00 0.00 0.00 82 1021.3
20210925130031 42 121 0.0 0.0 0.00 0.00 0.00 82 1021.2
20210925125522 42 121 0.0 1.0 0.00 0.00 0.00 82 1021.2
20210925125028 42 121 0.0 1.0 0.00 0.00 0.00 82 1021.2
20210925124519 42 121 0.0 0.0 0.00 0.00 0.00 83 1021.3
20210925124027 42 121 0.0 0.0 0.00 0.00 0.00 83 1021.3
20210925123519 42 121 0.0 0.0 0.00 0.00 0.00 83 1021.3
20210925123031 42 121 0.0 0.0 0.00 0.00 0.00 82 1021.3
20210925122527 42 121 0.0 0.0 0.00 0.00 0.00 82 1021.3
20210925122035 42 121 0.0 0.0 0.00 0.00 0.00 82 1021.2
20210925121522 42 121 0.0 0.0 0.00 0.00 0.00 82 1021.2
20210925121031 42 121 0.0 0.0 0.00 0.00 0.00 82 1021.2
20210925120522 42 121 0.0 0.0 0.00 0.00 0.00 82 1021.1
20210925120039 42 121 0.0 0.0 0.00 0.00 0.00 82 1021.1
20210925115545 42 121 0.0 0.0 0.00 0.00 0.00 81 1021.2
20210925115018 42 121 0.0 0.0 0.00 0.00 0.00 81 1021.1
20210925114545 42 121 0.0 0.0 0.00 0.00 0.00 81 1021.1
20210925114021 43 121 0.0 0.0 0.00 0.00 0.00 80 1021.1
20210925113543 43 121 0.0 0.0 0.00 0.00 0.00 80 1021.1
20210925113046 43 121 0.0 0.0 0.00 0.00 0.00 80 1021.1
20210925112522 43 121 0.0 0.0 0.00 0.00 0.00 80 1021.1
20210925112042 43 121 0.0 0.0 0.00 0.00 0.00 80 1021.1
20210925111518 43 121 0.0 0.0 0.00 0.00 0.00 80 1021.2
20210925111015 43 121 0.0 0.0 0.00 0.00 0.00 80 1021.2
20210925110520 43 121 0.0 0.0 0.00 0.00 0.00 80 1021.2
20210925110025 44 121 0.0 0.0 0.00 0.00 0.00 79 1021.2
20210925105528 44 121 0.0 0.0 0.00 0.00 0.00 79 1021.2
20210925105016 44 121 0.0 0.0 0.00 0.00 0.00 80 1021.1
20210925104526 44 121 0.0 0.0 0.00 0.00 0.00 79 1021.1
20210925104017 44 121 0.0 0.0 0.00 0.00 0.00 79 1021.1
20210925103521 44 121 0.0 0.0 0.00 0.00 0.00 79 1021.1
20210925103023 44 121 0.0 0.0 0.00 0.00 0.00 79 1021.1
20210925102530 44 121 0.0 0.0 0.00 0.00 0.00 78 1021.0
20210925102013 45 121 0.0 0.0 0.00 0.00 0.00 78 1021.0
20210925101529 45 121 0.0 0.0 0.00 0.00 0.00 78 1021.0
20210925101015 45 121 0.0 0.0 0.00 0.00 0.00 77 1021.0
20210925100521 45 121 0.0 0.0 0.00 0.00 0.00 77 1021.0
20210925100031 45 121 0.0 0.0 0.00 0.00 0.00 76 1021.0
20210925095516 45 121 0.0 0.0 0.00 0.00 0.00 76 1021.0
20210925095021 46 121 0.0 0.0 0.00 0.00 0.00 76 1021.0
20210925094526 46 121 0.0 0.0 0.00 0.00 0.00 76 1021.0
20210925094012 46 121 0.0 0.0 0.00 0.00 0.00 77 1021.0
20210925093520 46 121 0.0 1.0 0.00 0.00 0.00 78 1021.0
20210925093024 47 121 0.0 1.0 0.00 0.00 0.00 78 1021.0
20210925092535 47 121 0.0 0.0 0.00 0.00 0.00 79 1021.1
20210925092023 47 121 0.0 0.0 0.00 0.00 0.00 78 1021.1
20210925091529 47 121 0.0 0.0 0.00 0.00 0.00 78 1021.1
20210925091033 47 121 0.0 0.0 0.00 0.00 0.00 78 1021.1
20210925090528 47 121 0.0 0.0 0.00 0.00 0.00 79 1021.2
20210925090031 47 121 0.0 0.0 0.00 0.00 0.00 79 1021.2
20210925085522 47 121 0.0 0.0 0.00 0.00 0.00 79 1021.2
20210925085040 47 121 0.0 1.0 0.00 0.00 0.00 79 1021.1
20210925084528 47 121 0.0 1.0 0.00 0.00 0.00 78 1021.1
20210925084036 47 121 0.0 0.0 0.00 0.00 0.00 77 1021.2
20210925083533 47 121 0.0 0.0 0.00 0.00 0.00 77 1021.2
20210925083019 47 121 0.0 0.0 0.00 0.00 0.00 77 1021.2
20210925082526 47 121 0.0 0.0 0.00 0.00 0.00 77 1021.3
20210925082017 47 121 0.0 0.0 0.00 0.00 0.00 77 1021.2
20210925081531 47 121 0.0 0.0 0.00 0.00 0.00 76 1021.1
20210925081020 47 121 0.0 0.0 0.00 0.00 0.00 75 1021.1
20210925080527 47 121 0.0 0.0 0.00 0.00 0.00 74 1021.0
20210925080032 47 121 0.0 0.0 0.00 0.00 0.00 74 1021.0
20210925075520 47 121 0.0 0.0 0.00 0.00 0.00 73 1021.0
20210925075033 47 121 0.0 0.0 0.00 0.00 0.00 73 1021.0
20210925074531 47 121 0.0 0.0 0.00 0.00 0.00 73 1021.0
20210925074033 48 121 0.0 0.0 0.00 0.00 0.00 72 1021.0
20210925073520 48 121 0.0 0.0 0.00 0.00 0.00 72 1021.0
20210925073030 48 121 0.0 0.0 0.00 0.00 0.00 72 1021.1
20210925072526 48 121 0.0 0.0 0.00 0.00 0.00 73 1021.2
20210925072036 48 121 0.0 0.0 0.00 0.00 0.00 73 1021.2
20210925071534 49 121 0.0 0.0 0.00 0.00 0.00 74 1021.2
20210925071025 49 121 0.0 0.0 0.00 0.00 0.00 74 1021.3
20210925070533 49 121 0.0 0.0 0.00 0.00 0.00 73 1021.2
20210925070020 49 121 0.0 0.0 0.00 0.00 0.00 73 1021.4
20210925065529 49 121 0.0 0.0 0.00 0.00 0.00 73 1021.4
20210925065028 49 121 0.0 0.0 0.00 0.00 0.00 71 1021.4
20210925064523 49 121 0.0 0.0 0.00 0.00 0.00 71 1021.5
20210925064027 49 121 0.0 0.0 0.00 0.00 0.00 71 1021.6
20210925063520 49 121 0.0 0.0 0.00 0.00 0.00 71 1021.7
20210925063036 49 121 0.0 0.0 0.00 0.00 0.00 71 1021.8
20210925062527 49 121 0.0 0.0 0.00 0.00 0.00 70 1021.8
20210925062033 50 121 0.0 0.0 0.00 0.00 0.00 70 1021.9
20210925061537 50 121 0.0 0.0 0.00 0.00 0.00 69 1022.0
20210925061035 50 121 0.0 0.0 0.00 0.00 0.00 69 1022.0
20210925060548 50 121 0.0 0.0 0.00 0.00 0.00 69 1022.2
20210925060019 50 121 0.0 0.0 0.00 0.00 0.00 69 1022.2
20210925055542 50 121 0.0 0.0 0.00 0.00 0.00 69 1022.2
20210925055028 50 121 0.0 0.0 0.00 0.00 0.00 69 1022.2
20210925054513 50 121 0.0 0.0 0.00 0.00 0.00 69 1022.2
20210925054031 51 121 0.0 0.0 0.00 0.00 0.00 68 1022.2
20210925053518 51 121 0.0 0.0 0.00 0.00 0.00 68 1022.3
20210925053026 51 121 0.0 0.0 0.00 0.00 0.00 68 1022.3
20210925052516 51 121 0.0 0.0 0.00 0.00 0.00 67 1022.3
20210925052027 51 121 0.0 0.0 0.00 0.00 0.00 67 1022.3
20210925051522 51 121 0.0 0.0 0.00 0.00 0.00 67 1022.3
20210925051031 51 121 0.0 0.0 0.00 0.00 0.00 67 1022.4
20210925050522 52 121 0.0 0.0 0.00 0.00 0.00 67 1022.3
20210925050032 52 121 0.0 0.0 0.00 0.00 0.00 67 1022.3
20210925045525 52 121 0.0 0.0 0.00 0.00 0.00 67 1022.3
20210925045035 52 121 0.0 0.0 0.00 0.00 0.00 67 1022.4
20210925044519 52 121 0.0 0.0 0.00 0.00 0.00 68 1022.5
20210925044020 52 121 0.0 0.0 0.00 0.00 0.00 68 1022.5
20210925043519 52 121 0.0 0.0 0.00 0.00 0.00 67 1022.5
20210925043019 53 121 0.0 0.0 0.00 0.00 0.00 67 1022.5
20210925042542 53 121 0.0 0.0 0.00 0.00 0.00 66 1022.5
20210925042043 53 121 0.0 0.0 0.00 0.00 0.00 65 1022.6
20210925041521 53 121 0.0 0.0 0.00 0.00 0.00 63 1022.7
20210925041020 54 121 0.0 0.0 0.00 0.00 0.00 63 1022.7
20210925040522 54 121 0.0 0.0 0.00 0.00 0.00 63 1022.7
20210925040017 54 121 0.0 0.0 0.00 0.00 0.00 64 1022.6
20210925035539 54 121 0.0 0.0 0.00 0.00 0.00 64 1022.5
20210925035046 54 121 0.0 0.0 0.00 0.00 0.00 64 1022.5
20210925034539 55 121 0.0 0.0 0.00 0.00 0.00 64 1022.5
20210925034045 55 121 0.0 0.0 0.00 0.00 0.00 61 1022.5
20210925033522 55 121 0.0 0.0 0.00 0.00 0.00 62 1022.6
20210925033017 55 121 0.0 0.0 0.00 0.00 0.00 63 1022.6
20210925032516 56 121 0.0 0.0 0.00 0.00 0.00 62 1022.6
20210925032034 56 121 0.0 0.0 0.00 0.00 0.00 61 1022.6
20210925031520 56 121 0.0 0.0 0.00 0.00 0.00 61 1022.6
20210925031019 56 121 0.0 0.0 0.00 0.00 0.00 60 1022.5
20210925030526 56 121 0.0 0.0 0.00 0.00 0.00 60 1022.6
20210925030031 57 121 0.0 0.0 0.00 0.00 0.00 59 1022.6
20210925025527 57 121 0.0 0.0 0.00 0.00 0.00 59 1022.5
20210925025038 57 121 0.0 0.0 0.00 0.00 0.00 58 1022.5
20210925024529 57 121 0.0 0.0 0.00 0.00 0.00 57 1022.5
20210925024042 57 121 0.0 0.0 0.00 0.00 0.00 55 1022.4
20210925023531 58 121 0.0 0.0 0.00 0.00 0.00 55 1022.4
20210925023045 58 121 0.0 0.0 0.00 0.00 0.00 55 1022.4
20210925022531 59 121 0.0 0.0 0.00 0.00 0.00 55 1022.3
20210925022051 59 121 0.0 0.0 0.00 0.00 0.00 54 1022.2
20210925021526 60 121 0.0 0.0 0.00 0.00 0.00 53 1022.0
20210925021029 60 121 0.0 0.0 0.00 0.00 0.00 54 1022.0
20210925020517 61 121 0.0 0.0 0.00 0.00 0.00 53 1021.9
20210925020024 62 121 0.0 0.0 0.00 0.00 0.00 52 1021.9
20210925015517 63 121 0.0 0.0 0.00 0.00 0.00 52 1021.9
20210925015020 63 121 0.0 0.0 0.00 0.00 0.00 51 1021.9
20210925014534 64 121 0.0 0.0 0.00 0.00 0.00 51 1021.8
20210925014021 64 121 0.0 0.0 0.00 0.00 0.00 49 1021.8
20210925013519 65 121 0.0 0.0 0.00 0.00 0.00 47 1021.8
20210925013027 65 121 0.0 0.0 0.00 0.00 0.00 46 1021.7
20210925012534 65 121 0.0 0.0 0.00 0.00 0.00 45 1021.7
20210925012017 66 121 0.0 0.0 0.00 0.00 0.00 44 1021.7
20210925011529 66 121 0.0 0.0 0.00 0.00 0.00 43 1021.6
20210925011032 66 121 0.0 0.0 0.00 0.00 0.00 42 1021.6
20210925010527 67 121 0.0 0.0 0.00 0.00 0.00 42 1021.5
20210925010040 67 121 0.0 0.0 0.00 0.00 0.00 42 1021.6
20210925005524 68 121 0.0 0.0 0.00 0.00 0.00 42 1021.6
20210925005048 68 121 0.0 0.0 0.00 0.00 0.00 41 1021.6